Regional Weather Roundup
Issued by NWS Little Rock, AR

Home | Current Version | Previous Version | Text Only | Print | Product List | Glossary Off
Versions: 1 2 3 4 5 6 7 8 9 10 11 12 13 14 15 16 17 18 19 20 21 22 23 24 25 26 27 28 29 30 31 32 33 34 35 36 37 38 39 40 41 42 43 44 45 46 47 48 49 50

000
ASUS44 KLZK 042105
RWRLZK

WEATHER ROUNDUP FOR ARKANSAS
NATIONAL WEATHER SERVICE LITTLE ROCK AR
300 PM CST WED MAR 04 2015

NOTE: "FAIR" INDICATES FEW OR NO CLOUDS BELOW 12,000 FEET WITH NO
SIGNIFICANT WEATHER AND/OR OBSTRUCTIONS TO VISIBILITY.

ARZ001-003-010-029-042200-
NORTHWEST ARKANSAS

CITY           SKY/WX    TMP DP  RH WIND       PRES   REMARKS
FAYETTEVILLE   MIX PCPN  24  20  84 NE14G23   30.16R FOG     WCI  12
FORT SMITH     LGT SNOW  33  29  85 N16       30.11R FOG     WCI  23
HARRISON       LGT SNOW  23  21  92 N9        30.15R VSB 1   WCI  13
BENTONVILLE    CLOUDY    23  16  74 NE10      30.17R WCI  12
ROGERS         LGT SNOW  21  17  84 N15       30.17R FOG     WCI   8
SILOAM SPGS    CLOUDY    23  16  74 NE15G22   30.19R WCI  10
HIGHFILL       LGT SNOW  23  19  85 NE13      30.16R FOG     WCI  11
SPRINGDALE     LGT SNOW  23  19  86 NE14G25   30.16R FOG     WCI  11
$$

ARZ004-005-016-042200-
NORTH CENTRAL ARKANSAS

CITY           SKY/WX    TMP DP  RH WIND       PRES   REMARKS
BATESVILLE     CLOUDY    30  27  86 NW10G23   30.11R WCI  21
FLIPPIN        CLOUDY    25  19  80 CALM      30.17R VSB 1
MTN HOME       SNOW      23  21  92 N10G18    30.15S VSB 1/2 WCI  12
$$

ARZ040-041-042200-
WEST CENTRAL ARKANSAS

CITY           SKY/WX    TMP DP  RH WIND       PRES   REMARKS
MENA           CLOUDY    41  37  87 N10G17    30.01S
MOUNT IDA      LGT RAIN  39  36  89 MISG      29.98R FOG
$$

ARZ009-017-025-026-028-042200-
NORTHEAST ARKANSAS

CITY           SKY/WX    TMP DP  RH WIND       PRES   REMARKS
CORNING        RAIN      27  23  86 N18G32    30.16R WCI  13
JONESBORO      MIX PCPN  30  29  96 N13       30.11R FOG     WCI  20
NEWPORT        LGT SNOW  32  30  93 N24       30.10R FOG     WCI  19
WALNUT RIDGE   CLOUDY    28  21  74 N22G28    30.16R WCI  15
BLYTHEVILLE    MIX PCPN  29  28  96 N25       30.09R VSB 1   WCI  14
$$

ARZ022-023-033-042-044-042200-
CENTRAL ARKANSAS

CITY           SKY/WX    TMP DP  RH WIND       PRES   REMARKS
LITTLE ROCK    HVY RAIN  39  37  92 NE13G18   30.04R FOG
N LITTLE ROCK  CLOUDY    37  37 100 N13G20    30.00
JACKSONVILLE   RAIN      37  37 100 N15G22    30.05R FOG
SEARCY         FLURRIES  35  33  92 N17G29    30.06F WCI  25
HOT SPRINGS    HVY RAIN  39  35  86 VRB7      30.00R FOG
RUSSELLVILLE   RAIN      36  32  85 N10G20    30.09R
CLINTON        LGT SNOW  32  28  86 CALM      30.12F
$$

ARZ036-042200-
EAST ARKANSAS

CITY           SKY/WX    TMP DP  RH WIND       PRES   REMARKS
WEST MEMPHIS   LGT SNOW  32  31  96 N26G37    30.03R FOG     WCI  18
$$

ARZ050-053-066-070-073-042200-
SOUTHWEST ARKANSAS

CITY           SKY/WX    TMP DP  RH WIND       PRES   REMARKS
ARKADELPHIA    HVY RAIN  41  41 100 NE16      30.00R FOG
CAMDEN         MIX PCPN  45  41  87 MISG      29.96R
TEXARKANA      RAIN      48  48 100 NE10      29.93R FOG
EL DORADO      LGT RAIN  48  45  89 N16G25    29.90R
DE QUEEN       HVY RAIN  43  40  89 N8G18     29.98R VSB 1
$$

ARZ056-057-069-042200-
SOUTHEAST ARKANSAS

CITY           SKY/WX    TMP DP  RH WIND       PRES   REMARKS
PINE BLUFF     RAIN      38  35  89 N14       30.01R FOG
STUTTGART      CLOUDY    37  34  87 NE22G31   30.01F
MONTICELLO     RAIN      40  37  89 NE14G22   29.95S FOG

$$




USA.gov is the U.S. government's official web portal to all federal, state and local government web resources and services.